Altoona, PA

11:39 AM EST on December 15, 2019 (GMT -0500)
Altoona-Blair County

Weather History for KAOO - May, 2019

Change the Weather History Date:

Thursday, May 9, 2019

  Actual Average Record
Temperature  
Mean Temperature 62 °F 56 °F  
Max Temperature 65 °F 67 °F 87 °F (1963)
Min Temperature 59 °F 45 °F 29 °F (1966)
Degree Days  
Heating Degree Days 3 9  
Month to date heating degree days 25 93  
Since 1 July heating degree days 5579 6011  
Cooling Degree Days 0 0  
Month to date cooling degree days 8 0  
Year to date cooling degree days 8 6  
Growing Degree Days 12 (Base 50)    
Moisture  
Dew Point 59 °F    
Average Humidity 89    
Maximum Humidity 93    
Minimum Humidity 84    
Precipitation  
Precipitation 0.02 in 0.12 in 0.79 in (2002)
Month to date precipitation 1.91 1.03  
Year to date precipitation 14.72 11.50  
Sea Level Pressure  
Sea Level Pressure 30.09 in    
Wind  
Wind Speed 9 mph (SE)    
Max Wind Speed 18 mph    
Max Gust Speed 25 mph    
Visibility 7 miles    
Events Rain    
T = Trace of Precipitation, MM = Missing Value Source: NWS Daily Summary

Daily Weather History Graph

Daily Weather History Graph

Search for Another Location

Airport or City:

Astronomy

May. 09, 2019 Rise Set
Actual Time 6:03 AM EDT 8:16 PM EDT
Civil Twilight 5:33 AM EDT 8:46 PM EDT
Nautical Twilight 4:56 AM EDT 9:24 PM EDT
Astronomical Twilight 4:15 AM EDT 10:05 PM EDT
Moon 9:56 AM EDT (5/9) 12:14 AM EDT (5/9)
Length of Visible Light 15h 13m
Length of Day
14h 12m
Waxing Crescent, 24% of the Moon is Illuminated
May 9
Waxing Crescent
May 11
First Quarter
May 18
Full
May 26
Last Quarter
Jun 3
New

Hourly Weather History & Observations

Time (EDT) Temp. Dew Point Humidity Pressure Visibility Wind Dir Wind Speed Gust Speed Precip Events Conditions
12:23 AM 62.1 °F 55.9 °F 80% 30.20 in 10.0 mi SSE 10.4 mph - N/A   Overcast
12:53 AM 61.0 °F 55.9 °F 83% 30.18 in 10.0 mi SE 4.6 mph - N/A   Overcast
1:53 AM 61.0 °F 55.9 °F 83% 30.17 in 10.0 mi SE 9.2 mph - N/A   Overcast
2:32 AM 60.1 °F 55.9 °F 86% 30.18 in 8.0 mi SSE 12.7 mph 17.3 mph N/A   Overcast
2:53 AM 60.1 °F 57.0 °F 90% 30.16 in 7.0 mi SSE 9.2 mph - N/A   Overcast
3:53 AM 60.1 °F 57.0 °F 90% 30.14 in 5.0 mi South 8.1 mph - N/A   Overcast
4:53 AM 59.0 °F 57.0 °F 93% 30.14 in 3.0 mi SSE 11.5 mph - N/A   Overcast
5:53 AM 59.0 °F 55.9 °F 90% 30.15 in 6.0 mi SSE 4.6 mph - N/A   Overcast
6:53 AM 59.0 °F 57.0 °F 93% 30.16 in 5.0 mi SSE 10.4 mph - N/A   Overcast
7:53 AM 59.0 °F 57.0 °F 93% 30.15 in 3.0 mi SE 8.1 mph - N/A   Overcast
8:53 AM 59.0 °F 57.0 °F 93% 30.15 in 4.0 mi SE 10.4 mph - N/A   Overcast
9:38 AM 59.0 °F 57.0 °F 93% 30.15 in 5.0 mi SSE 8.1 mph - N/A   Overcast
10:53 AM 60.1 °F 57.0 °F 90% 30.12 in 10.0 mi SE 6.9 mph - N/A   Overcast
11:53 AM 61.0 °F 57.0 °F 87% 30.12 in 10.0 mi SE 9.2 mph - N/A   Overcast
12:53 PM 62.1 °F 57.9 °F 86% 30.12 in 10.0 mi SSE 9.2 mph - N/A   Overcast
1:53 PM 62.1 °F 57.9 °F 86% 30.11 in 9.0 mi SE 11.5 mph - N/A   Overcast
2:53 PM 63.0 °F 57.9 °F 84% 30.08 in 8.0 mi SE 10.4 mph - N/A   Overcast
3:53 PM 63.0 °F 59.0 °F 87% 30.07 in 8.0 mi SE 11.5 mph - N/A   Overcast
4:23 PM 63.0 °F 59.0 °F 87% 30.07 in 8.0 mi SSE 11.5 mph - N/A   Overcast
4:34 PM 63.0 °F 59.0 °F 87% 30.07 in 7.0 mi SSE 10.4 mph 20.7 mph N/A   Overcast
4:53 PM 63.0 °F 59.0 °F 87% 30.05 in 6.0 mi SSE 5.8 mph - N/A   Overcast
5:53 PM 64.0 °F 60.1 °F 87% 30.05 in 6.0 mi East 3.5 mph - N/A   Overcast
6:14 PM 64.0 °F 59.0 °F 84% 30.06 in 6.0 mi ESE 4.6 mph - N/A   Haze
6:16 PM 64.0 °F 59.0 °F 84% 30.06 in 6.0 mi ESE 4.6 mph - N/A   Haze
6:19 PM 64.0 °F 59.0 °F 84% 30.05 in 6.0 mi ESE 5.8 mph - N/A   Haze
6:53 PM 64.0 °F 59.0 °F 84% 30.04 in 6.0 mi ENE 4.6 mph - N/A   Haze
7:13 PM 64.0 °F 60.1 °F 87% 30.04 in 6.0 mi East 6.9 mph - 0.00 in Rain Light Rain
7:37 PM 63.0 °F 60.1 °F 90% 30.04 in 4.0 mi East 8.1 mph - 0.00 in Rain Light Rain
7:53 PM 63.0 °F 60.1 °F 90% 30.04 in 5.0 mi East 6.9 mph - 0.00 in Rain Light Rain
8:11 PM 64.0 °F 60.1 °F 87% 30.04 in 7.0 mi ENE 4.6 mph - 0.00 in   Overcast
8:31 PM 64.0 °F 60.1 °F 87% 30.04 in 7.0 mi Variable 4.6 mph - 0.00 in   Overcast
8:53 PM 63.0 °F 61.0 °F 93% 30.03 in 5.0 mi East 6.9 mph - 0.02 in Rain Light Rain
9:12 PM 64.0 °F 61.0 °F 90% 30.04 in 5.0 mi East 5.8 mph - 0.00 in   Overcast
9:53 PM 64.0 °F 61.0 °F 90% 30.02 in 9.0 mi ESE 4.6 mph - 0.00 in   Overcast
9:59 PM 64.9 °F 61.0 °F 87% 30.03 in 10.0 mi Variable 5.8 mph - N/A   Overcast
10:30 PM 64.9 °F 61.0 °F 87% 30.04 in 10.0 mi SSE 12.7 mph - N/A   Overcast
10:53 PM 64.9 °F 61.0 °F 87% 30.02 in 10.0 mi SSE 12.7 mph 19.6 mph N/A   Overcast
11:00 PM 64.9 °F 61.0 °F 87% 30.03 in 10.0 mi SSE 17.3 mph 24.2 mph N/A   Overcast
11:53 PM 64.9 °F 60.1 °F 84% 30.01 in 10.0 mi SSE 13.8 mph 20.7 mph N/A   Overcast